Location: Estes Park
(40.3770°N, 105.5210°W)
Time: 23:44:55
(UTC-06:00)

Tiangong 1 - Pass Details

Date: 14 October 2017
Orbit: 294 x 321 km, 42.8° (Epoch: 16 October)

Event Time Altitude Azimuth Distance (km) Brightness Sun altitude
Rises 19:33:58 0° 285° (WNW) 2,035 6.4 -14.3°
Reaches altitude 10° 19:35:58 10° 282° (WNW) 1,200 4.9 -14.6°
Maximum altitude 19:38:37 58° 202° (SSW) 366 1.0 -15.2°
Enters shadow 19:39:22 38° 142° (SE) 486 1.2 -15.3°
